Meteo Giornale » Osservazioni meteo Italia » Roma Fiumicino

ore: 14:20 - Osservazioni Meteo Roma Fiumicino
Lat. 41° 48' N Lon. 12° 14' E Alt. 2 metri s.l.m.

coperto_pioggia Europe/Rome

20 °C

Pioggia

Temp. 24 Ore

17 °C

25 °C

Nord

9.3 Km/h

Dew point 18 °C

Umidità 88 %

Visibilità  8 Km

Il sole sorge alle ore 06:57

Il sole tramonta alle ore 19:10

Data e Ora Cielo e Fenomeni T °C DP °C Um. % Pres. hPa Vis. km Vento km/h
Oggi h: 14:20 coperto_pioggia Pioggia 20 18 88 1018 8 N 9.3
Oggi h: 13:50 coperto_pioggia Pioggia Debole 21 17 77 1017 8 SE 20.3
Oggi h: 13:20 nuvoloso Nuvoloso 21 18 82 1017 10 SE 14.8
Oggi h: 12:50 poco_nuvoloso Poco Nuvoloso 21 18 82 1017 10 E/SE 25.9
Oggi h: 12:20 poco_nuvoloso Poco Nuvoloso 20 17 82 1017 10 E/SE 22.2
Oggi h: 11:50 coperto_pioggia Pioggia Debole 19 17 88 1017 10 E/SE 22.2
Oggi h: 11:20 coperto_pioggia Pioggia Debole 19 17 88 1017 10 SE 22.2
Oggi h: 10:50 coperto_pioggia Pioggia Debole 20 17 82 1018 10 S/SE 16.7
Oggi h: 10:20 poco_nuvoloso Poco Nuvoloso 20 18 88 1017 10 SE 9.3
Oggi h: 09:50 poco_nuvoloso Poco Nuvoloso 19 17 88 1018 10 E/SE 13
Oggi h: 09:20 poco_nuvoloso Poco Nuvoloso 18 17 93 1017 10 E/NE 14.8
Oggi h: 08:50 coperto_pioggia Pioggia Debole Temporale nelle Vicinanze 17 17 100 1018 10 N 5.5
Oggi h: 08:20 coperto_pioggia Pioggia 17 17 100 1019 6 E 14.8
Oggi h: 07:50 nuvoloso_temporali Temporale con Pioggia 17 16 93 1019 6 E/NE 9.3
Oggi h: 07:20 nuvoloso_temporali Temporale con Pioggia 18 17 93 1018 7 E/SE 16.7
Oggi h: 06:50 coperto_pioggia Pioggia Temporale nelle Vicinanze 18 16 88 1019 6 E 16.7
Oggi h: 05:50 coperto_pioggia Pioggia Temporale nelle Vicinanze 19 16 82 1019 7 NE 13
Oggi h: 05:20 coperto_pioggia Pioggia Debole Temporale nelle Vicinanze 23 13 53 1019 10 N 31.5
Oggi h: 04:50 nuvoloso Nuvoloso 22 13 56 1018 10 E/SE 13
Oggi h: 04:20 nuvoloso Nuvoloso 22 14 60 1018 10 SE 14.8
Oggi h: 03:50 nuvoloso Nuvoloso 22 13 56 1018 10 SE 14.8
Oggi h: 03:20 nuvoloso Nuvoloso 22 13 56 1018 10 SE 13
Oggi h: 02:50 poco_nuvoloso Poco Nuvoloso 21 14 64 1019 10 E 13
Oggi h: 02:20 nuvoloso Nuvoloso 21 14 64 1018 10 E 20.3
Oggi h: 01:50 nuvoloso Nuvoloso 21 15 68 1019 10 E 13
Oggi h: 01:20 poco_nuvoloso Poco Nuvoloso 21 15 68 1019 10 E 11.1
Oggi h: 00:50 nuvoloso Nuvoloso 21 15 68 1020 10 E 9.3
Oggi h: 00:20 sereno Sereno 20 15 72 1020 10 E 9.3
Ieri h: 23:50 sereno Sereno 20 16 77 1020 10 E 7.4
Ieri h: 23:20 sereno Sereno 20 16 77 1020 10 N 5.5
Ieri h: 22:50 sereno Sereno 21 16 73 1020 10 SE 9.3
Ieri h: 22:20 sereno Sereno 22 16 68 1020 10 E 11.1
Ieri h: 21:50 sereno Sereno 21 16 73 1020 10 N 5.5
Ieri h: 21:20 sereno Sereno 22 16 68 1020 10 E 9.3
Ieri h: 20:50 sereno Sereno 22 16 68 1020 10 E 7.4
Ieri h: 20:20 sereno Sereno 22 16 68 1020 10 N 5.5
Ieri h: 19:50 sereno Sereno 23 17 68 1020 10 S 7.4
Ieri h: 19:20 sereno Sereno 23 17 68 1020 10 S/SO 14.8
Ieri h: 18:50 sereno Sereno 23 17 68 1020 10 S/SO 14.8
Ieri h: 17:50 sereno Sereno 24 17 64 1020 10 S/SO 13
Ieri h: 17:20 sereno Sereno 25 16 57 1020 10 S/SO 7.4
Ieri h: 16:50 sereno Sereno 25 17 61 1020 10 O/SO 9.3
Ieri h: 16:20 poco_nuvoloso Poco Nuvoloso 24 16 60 1021 10 O/SO 13
Ieri h: 15:50 nuvoloso Nuvoloso 25 17 61 1021 10 O/SO 13
Ieri h: 15:20 nuvoloso Nuvoloso 25 17 61 1021 10 O/SO 13
Ieri h: 14:50 nuvoloso Nuvoloso 25 17 61 1022 10 SO 18.5